This is the latest recevied weather packets stored in our database for station/object KI5MKI. If no packets are shown the sender has not sent any weather packets the latest 10 day(s).
| Time | Temp. | Humidity | Pressure | Rain* | Wind** | Luminosity | Snow |
|---|---|---|---|---|---|---|---|
| 1777908958 | 21.11° C | 58% | 1014.3 hPa | 0 mm | - | 703 W/m² | - |
| 1777908656 | 21.11° C | 57% | 1014.4 hPa | 0 mm | - | 694 W/m² | - |
| 1777908352 | 21.11° C | 56% | 1014.3 hPa | 0 mm | - | 599 W/m² | - |
| 1777908049 | 21.11° C | 57% | 1014.4 hPa | 0 mm | - | 666 W/m² | - |
| 1777907745 | 20.56° C | 58% | 1014.5 hPa | 0 mm | - | 574 W/m² | - |
| 1777907445 | 20.56° C | 58% | 1014.2 hPa | 0 mm | - | 472 W/m² | - |
| 1777907142 | 20.56° C | 59% | 1014.5 hPa | 0 mm | - | 620 W/m² | - |
| 1777906840 | 20.56° C | 60% | 1014.6 hPa | 0 mm | - | 389 W/m² | - |
| 1777906537 | 20° C | 60% | 1014.8 hPa | 0 mm | - | 496 W/m² | - |
| 1777906232 | 20° C | 61% | 1014.6 hPa | 0 mm | - | 461 W/m² | - |
| 1777905929 | 20° C | 62% | 1014.7 hPa | 0 mm | - | 431 W/m² | - |
| 1777905626 | 20° C | 62% | 1014.7 hPa | 0 mm | - | 237 W/m² | - |
| 1777905323 | 19.44° C | 63% | 1014.7 hPa | 0 mm | - | 217 W/m² | - |
| 1777905021 | 19.44° C | 63% | 1014.8 hPa | 0 mm | - | 254 W/m² | - |
| 1777904718 | 19.44° C | 63% | 1014.8 hPa | 0 mm | - | 150 W/m² | - |
| 1777904414 | 19.44° C | 64% | 1014.8 hPa | 0 mm | - | 137 W/m² | - |
| 1777904111 | 19.44° C | 65% | 1014.7 hPa | 0 mm | - | 119 W/m² | - |
| 1777903808 | 18.89° C | 65% | 1014.7 hPa | 0 mm | - | 105 W/m² | - |
| 1777903505 | 18.89° C | 66% | 1014.8 hPa | 0 mm | - | 143 W/m² | - |
| 1777903201 | 18.89° C | 66% | 1014.6 hPa | 0 mm | - | 102 W/m² | - |
| 1777902897 | 18.89° C | 66% | 1014.8 hPa | 0 mm | - | 105 W/m² | - |
| 1777902594 | 18.33° C | 66% | 1014.7 hPa | 0 mm | - | 117 W/m² | - |
| 1777902291 | 18.33° C | 67% | 1014.7 hPa | 0 mm | - | 124 W/m² | - |
| 1777901989 | 17.78° C | 69% | 1014.9 hPa | 0 mm | - | 128 W/m² | - |
| 1777901687 | 17.78° C | 69% | 1014.9 hPa | 0 mm | - | 111 W/m² | - |
* Rain latest hour (hover to see other rain measurements)
** Current wind speed in m/s (hover to see current wind gust speed)